[[{"header":{"parameterUnit":"m.s-1","parameterCategory":1,"la1":30.2991,"la2":30.254,"lo1":-89.0895,"lo2":-89.0444,"dy":0.0017,"dx":0.0017,"nx":28,"ny":28,"refTime":"2024-06-06T03:00:00:Z","depth":0,"parameterNumber":2,"parameterNumberName":"U-component_of_WINDS"},"data":[0,0,0,0,0,0,0,0,0,0,0,0,0,0,0,0,0,0,0,0,0,0,0,0,0,0,0,0,0,0,0,0,0,0,0,0,0,0,0,0,0,0,0,0,0,0,0,0,0,0,0,0,0,0,0,0,0,0,2.2368,2.2368,0,2.2316,2.2315,2.2315,2.224,2.2239,2.2237,2.2236,2.2182,2.2182,2.2181,0,0,0,0,0,0,0,0,0,0,0,0,0,2.2401,2.2401,2.2368,2.2368,2.2367,2.2316,2.2315,2.2315,2.224,2.2239,2.2237,2.2236,2.2182,2.2182,2.2181,0,0,0,0,0,0,0,0,0,0,0,0,0,2.2372,2.2401,2.2368,2.2324,2.2319,2.2316,2.2315,2.2314,2.224,2.2239,2.2237,2.2235,2.2182,2.2182,2.2181,2.2218,0,0,2.218,2.218,0,0,0,0,0,0,0,0,2.2373,2.237,2.2331,2.2327,2.2322,2.2282,2.2307,2.2282,2.2241,2.227,2.2236,2.2234,2.2217,2.2214,2.2208,2.2215,2.2213,2.218,2.218,2.218,2.218,0,0,0,0,0,0,0,2.2375,2.2372,2.2347,2.233,2.2325,2.2305,2.2299,2.2302,2.2255,2.2268,2.2262,2.2257,2.2214,2.2209,2.2206,2.2212,2.218,2.218,2.218,2.218,2.2242,2.2244,0,0,0,0,0,0,2.2384,2.2374,2.2349,2.2346,2.2343,2.2306,2.2299,2.2297,2.2255,2.2247,2.2259,2.2254,2.221,2.2207,2.2204,2.2241,2.218,2.218,2.2179,2.224,2.2243,2.2245,0,0,0,0,0,0,2.2385,2.2383,2.2351,2.2359,2.2353,2.2308,2.2306,2.2297,2.2291,2.2248,2.2239,2.2262,2.2208,2.2204,2.2214,2.2238,2.2179,2.2179,2.2238,2.2241,2.2244,2.2317,0,0,0,0,0,0,2.2387,2.2384,2.2398,2.2359,2.2353,2.2363,2.2307,2.2297,2.2291,2.2284,2.2249,2.2241,2.2207,2.2215,2.2214,2.2236,2.2179,2.2236,2.2239,2.2243,2.2312,2.2321,2.233,0,0,0,0,0,2.2388,2.2421,2.2399,2.2396,2.237,2.2365,2.2361,2.2321,2.2293,2.2306,2.2278,2.2242,2.2236,2.2217,2.2214,2.2237,2.2234,2.2238,2.2243,2.2308,2.232,2.233,0,0,0,0,0,0,2.2464,2.2415,2.239,2.2412,2.2393,2.2352,2.2368,2.2336,2.2324,2.2318,2.2269,2.2261,2.2276,2.2258,2.2237,2.2268,2.2229,2.2233,2.2279,2.229,2.2299,2.2302,2.2178,0,0,0,0,0,2.2483,2.2484,2.2441,2.2464,2.2456,2.2414,2.241,2.2381,2.2359,2.2351,2.2323,2.2303,2.2296,2.2292,2.2284,2.2309,2.2298,2.2324,2.2333,2.234,2.2344,2.2352,2.2362,2.2259,2.2259,2.2258,0,0,2.2523,2.2496,2.25,2.2479,2.2461,2.2461,2.2407,2.2411,2.241,2.2351,2.2357,2.2337,2.2311,2.2327,2.2333,2.2312,2.237,2.2346,2.2352,2.2351,2.2357,2.2367,2.2376,2.2261,2.2261,2.226,0,0,2.2594,2.2576,2.2591,2.2574,2.2547,2.2518,2.2522,2.2485,2.2469,2.2475,2.2429,2.2428,2.2418,2.24,2.239,2.2452,2.2417,2.2451,2.2497,2.2506,2.2514,2.2521,2.254,2.2548,2.2455,2.2455,2.2455,0,2.2647,2.2646,2.2604,2.2609,2.26,2.2546,2.256,2.2545,2.2517,2.2511,2.2489,2.2473,2.2452,2.2462,2.2477,2.2471,2.2472,2.2454,2.2517,2.2523,2.2529,2.2547,2.2554,2.2459,2.2459,2.2458,2.2458,0,2.2711,2.2711,2.2726,2.2699,2.2692,2.2702,2.266,2.2657,2.2628,2.2602,2.2606,2.2579,2.2562,2.2563,2.2536,2.2568,2.2556,2.2526,2.2485,2.2543,2.2559,2.2566,2.2465,2.2463,2.2462,2.2461,0,0,2.2829,2.2777,2.2783,2.2768,2.2734,2.2732,2.2739,2.2722,2.272,2.2702,2.2704,2.2696,2.2667,2.2655,2.2625,2.2633,2.268,2.2601,2.26,2.2615,2.2711,2.2732,2.2741,2.2658,2.2659,2.266,2.2712,0,2.2891,2.29,2.2861,2.2879,2.2876,2.2824,2.2829,2.2808,2.2783,2.2776,2.2748,2.2742,2.2706,2.2698,2.2704,2.2674,2.2698,2.2669,2.2657,2.2657,2.2663,2.2749,2.2772,2.2823,2.2718,2.2719,2.272,0,2.2966,2.2951,2.2969,2.293,2.2928,2.2933,2.2913,2.2909,2.2882,2.2863,2.2849,2.2813,2.2815,2.2778,2.2777,2.2759,2.2751,2.2735,2.2736,2.2732,2.2691,2.2745,2.2838,2.2845,2.273,2.2729,2.2728,0,2.3046,2.3031,2.3038,2.3028,2.2985,2.2989,2.2971,2.2943,2.2934,2.2917,2.291,2.2894,2.2884,2.2871,2.2831,2.2808,2.2834,2.2795,2.2816,2.2817,2.2823,2.2823,2.2914,2.2823,2.2823,2.2822,2.2822,0,2.3119,2.3131,2.3073,2.3078,2.3089,2.3043,2.3055,2.3032,2.3007,2.3004,2.2959,2.2958,2.2906,2.2899,2.2867,2.287,2.2867,2.285,2.2841,2.2852,2.2854,2.2845,2.284,2.2824,2.2824,2.2824,2.2823,0,2.321,2.3173,2.3177,2.3135,2.3124,2.3134,2.3097,2.3098,2.307,2.3067,2.3064,2.3019,2.3007,2.2967,2.2945,2.2924,2.2935,2.292,2.2944,2.2938,2.2961,2.2959,2.3048,2.3056,2.2963,2.2964,2.2964,0,2.3258,2.3266,2.3224,2.3219,2.3203,2.3197,2.3187,2.3142,2.3134,2.3103,2.3108,2.3093,2.3077,2.3061,2.3025,2.3008,2.299,2.3023,2.2987,2.2997,2.2987,2.2986,2.2985,2.303,2.3031,2.3032,2.3033,0,2.3346,2.3326,2.3315,2.3297,2.3287,2.327,2.3251,2.325,2.3199,2.3192,2.3179,2.3168,2.3145,2.3129,2.3105,2.3085,2.3049,2.3045,2.3048,2.3059,2.3071,2.3062,2.2962,2.3042,2.3041,2.3041,2.304,2.304,2.3415,2.3418,2.3388,2.3377,2.3357,2.334,2.3338,2.3309,2.3298,2.3275,2.325,2.3239,2.321,2.3174,2.3156,2.3146,2.3127,2.3133,2.3134,2.3136,2.314,2.3075,2.3142,2.3142,2.3141,2.3141,2.3141,0,2.3497,2.3475,2.3465,2.3439,2.3429,2.3398,2.3374,2.3367,2.3359,2.3335,2.3321,2.3305,2.3289,2.3252,2.3231,2.323,2.3213,2.3226,2.3225,2.322,2.316,2.3157,2.324,2.324,2.324,2.324,2.324,2.324,2.3539,2.3542,2.3519,2.3511,2.3488,2.3478,2.3467,2.3449,2.3429,2.3414,2.34,2.3376,2.3346,2.3323,2.3305,2.3295,2.3288,2.3306,2.329,2.3234,2.3224,2.3215,2.3213,2.3306,2.3306,2.335,2.335,2.3351]},{"header":{"parameterUnit":"m.s-1","parameterCategory":1,"la1":30.2991,"la2":30.254,"lo1":-89.0895,"lo2":-89.0444,"dy":0.0017,"dx":0.0017,"nx":28,"ny":28,"refTime":"2024-06-06T03:00:00:Z","depth":0,"parameterNumber":3,"parameterNumberName":"V-component_of_WINDS"},"data":[0,0,0,0,0,0,0,0,0,0,0,0,0,0,0,0,0,0,0,0,0,0,0,0,0,0,0,0,0,0,0,0,0,0,0,0,0,0,0,0,0,0,0,0,0,0,0,0,0,0,0,0,0,0,0,0,0,0,5.5247,5.5247,0,5.5251,5.5251,5.5251,5.516,5.5157,5.5155,5.5152,5.5156,5.5158,5.516,0,0,0,0,0,0,0,0,0,0,0,0,0,5.5157,5.5159,5.5247,5.5247,5.5247,5.5251,5.5251,5.5251,5.516,5.5157,5.5154,5.5151,5.5155,5.5158,5.516,0,0,0,0,0,0,0,0,0,0,0,0,0,5.5182,5.516,5.5247,5.5202,5.5198,5.5251,5.5251,5.5251,5.5161,5.5157,5.5153,5.515,5.5154,5.5157,5.5161,5.5257,0,0,5.5172,5.5173,0,0,0,0,0,0,0,0,5.5181,5.5185,5.5208,5.5205,5.5201,5.5201,5.522,5.5253,5.5162,5.5175,5.5152,5.5148,5.5174,5.5175,5.5184,5.5257,5.5257,5.5172,5.5174,5.5176,5.5177,0,0,0,0,0,0,0,5.5179,5.5185,5.5248,5.5209,5.5204,5.5181,5.518,5.5226,5.5195,5.5173,5.5167,5.5169,5.5171,5.5181,5.5184,5.5257,5.5172,5.5175,5.5177,5.5179,5.5406,5.541,0,0,0,0,0,0,5.5184,5.5184,5.5248,5.5248,5.5181,5.5185,5.5185,5.5205,5.5194,5.5189,5.5172,5.5164,5.5177,5.518,5.5183,5.5293,5.5176,5.5179,5.5181,5.5402,5.5407,5.5411,0,0,0,0,0,0,5.5182,5.519,5.5248,5.5214,5.522,5.5191,5.5214,5.5207,5.5217,5.5193,5.5187,5.5188,5.5174,5.5178,5.5239,5.5292,5.5181,5.5184,5.5398,5.5404,5.5409,5.5515,0,0,0,0,0,0,5.518,5.519,5.5227,5.5216,5.5222,5.5304,5.5217,5.5209,5.5223,5.5214,5.5206,5.5202,5.5171,5.5234,5.5242,5.5295,5.5187,5.5393,5.54,5.5407,5.5506,5.5523,5.5538,0,0,0,0,0,5.5177,5.5257,5.523,5.5238,5.5268,5.5308,5.5311,5.5275,5.5228,5.5264,5.5248,5.5202,5.5285,5.5241,5.525,5.5304,5.5389,5.5398,5.5407,5.5499,5.552,5.5538,0,0,0,0,0,0,5.5275,5.5255,5.5224,5.5303,5.5308,5.5292,5.5337,5.5298,5.5316,5.5307,5.526,5.526,5.5327,5.5322,5.5273,5.5395,5.5329,5.534,5.5396,5.5416,5.5431,5.543,5.519,0,0,0,0,0,5.5306,5.5341,5.5321,5.5392,5.5396,5.5366,5.5382,5.5354,5.5357,5.5358,5.5347,5.5352,5.5378,5.5397,5.542,5.5506,5.5502,5.5547,5.5563,5.5576,5.5586,5.5629,5.5648,5.544,5.544,5.544,0,0,5.5369,5.5363,5.5387,5.5411,5.5412,5.5448,5.5369,5.541,5.5436,5.5365,5.542,5.5413,5.5414,5.5487,5.5519,5.5485,5.5643,5.5588,5.5598,5.56,5.564,5.5659,5.5677,5.5446,5.5445,5.5444,0,0,5.5503,5.5503,5.5561,5.5563,5.5565,5.5544,5.5558,5.5549,5.5541,5.5596,5.5543,5.5573,5.562,5.5623,5.5631,5.5765,5.5723,5.5775,5.5857,5.5899,5.5916,5.593,5.5976,5.5993,5.5784,5.5785,5.5785,0,5.5582,5.5635,5.5596,5.5641,5.5652,5.5589,5.5647,5.5651,5.566,5.5669,5.5631,5.5689,5.5686,5.5757,5.579,5.5799,5.5812,5.5774,5.5917,5.593,5.5943,5.5987,5.6004,5.5791,5.579,5.5789,5.5789,0,5.5731,5.5768,5.5815,5.5825,5.5842,5.5894,5.5861,5.5883,5.5853,5.5836,5.5893,5.5887,5.5907,5.5922,5.5894,5.599,5.5968,5.5925,5.5857,5.597,5.601,5.6026,5.58,5.5797,5.5796,5.5794,0,0,5.5926,5.5914,5.5931,5.5934,5.5931,5.5959,5.6007,5.6027,5.6046,5.6055,5.6093,5.6134,5.6093,5.6102,5.6073,5.6111,5.6215,5.6062,5.6061,5.6089,5.6319,5.6351,5.6371,5.6188,5.6191,5.6193,5.6318,0,5.6055,5.6136,5.6102,5.6186,5.6219,5.6159,5.6201,5.6203,5.6189,5.6214,5.6198,5.6228,5.6172,5.6177,5.6211,5.6196,5.6261,5.6186,5.6221,5.6223,5.6221,5.6392,5.6426,5.6544,5.6334,5.6336,5.6338,0,5.6216,5.623,5.6318,5.6308,5.632,5.6358,5.6373,5.6399,5.6399,5.6386,5.6396,5.6359,5.6404,5.6338,5.6399,5.6349,5.6361,5.6356,5.636,5.636,5.6286,5.6395,5.6581,5.6598,5.6363,5.6361,5.6359,0,5.6347,5.6389,5.6446,5.6451,5.6441,5.6469,5.6466,5.6463,5.6477,5.649,5.6498,5.6517,5.6527,5.6541,5.651,5.6465,5.6575,5.6506,5.6564,5.6565,5.6588,5.6587,5.6777,5.66,5.6599,5.6599,5.6599,0,5.6493,5.6548,5.6504,5.654,5.66,5.6559,5.662,5.661,5.6608,5.6639,5.659,5.662,5.6577,5.6604,5.6579,5.6632,5.6638,5.6627,5.662,5.6631,5.6632,5.6637,5.6627,5.6604,5.6603,5.6602,5.6601,0,5.6649,5.6622,5.668,5.6666,5.6663,5.6708,5.6695,5.6727,5.6709,5.6749,5.6757,5.6729,5.6757,5.6727,5.6753,5.6737,5.6808,5.6789,5.6808,5.6802,5.686,5.6855,5.7059,5.7083,5.6892,5.6894,5.6896,0,5.6743,5.6784,5.6774,5.6792,5.6792,5.6821,5.6834,5.6796,5.6813,5.6816,5.6847,5.6871,5.6888,5.6936,5.6917,5.6937,5.6917,5.6987,5.692,5.6929,5.6916,5.6913,5.6916,5.7001,5.7003,5.7005,5.7006,0,5.6912,5.6897,5.6919,5.6936,5.6953,5.6965,5.6973,5.699,5.695,5.6971,5.6999,5.7013,5.7039,5.7063,5.7077,5.7073,5.7033,5.7028,5.7042,5.7053,5.7061,5.7055,5.6843,5.7023,5.7021,5.702,5.7019,5.7019,5.7039,5.7072,5.707,5.7095,5.7097,5.7105,5.7133,5.7119,5.7142,5.716,5.7137,5.7171,5.717,5.7185,5.7185,5.7211,5.7181,5.7202,5.7207,5.7212,5.722,5.7058,5.7214,5.7214,5.7213,5.7213,5.7212,0,5.7204,5.7199,5.7223,5.7235,5.7255,5.7216,5.7223,5.7242,5.7273,5.7275,5.7293,5.7324,5.7347,5.7331,5.735,5.7374,5.7356,5.738,5.7377,5.7376,5.7247,5.7232,5.7394,5.7394,5.7394,5.7394,5.7394,5.7394,5.7292,5.7345,5.7329,5.7383,5.7377,5.7411,5.7417,5.7424,5.7426,5.7463,5.7482,5.7471,5.7466,5.7484,5.7503,5.7498,5.7506,5.7537,5.7525,5.7404,5.7386,5.7369,5.7354,5.754,5.754,5.7652,5.7653,5.7654]}]]